DJ3OW-13 Weather Reports


Display with metric or nautical units.
time (UTC)temp
F
wind
direction
speed
MPH
gust
MPH
rain 1hr
in
rain 24hr
in
rain mn
in
humidity
%
barometer
mb
20260505175053 58 359 1.0 2.0 0.00 0.13 0.06 88 1009.6
20260505174051 58 8 0.0 2.0 0.00 0.13 0.06 88 1009.7
20260505173050 58 45 0.0 2.0 0.00 0.13 0.06 87 1009.8
20260505172048 59 45 0.0 2.0 0.00 0.13 0.06 87 1009.7
20260505171126 59 50 0.0 2.0 0.00 0.13 0.06 87 1009.8
20260505170044 59 3 1.0 2.0 0.00 0.13 0.06 87 1009.9
20260505165041 59 30 1.0 2.0 0.00 0.13 0.06 86 1009.9
20260505164059 59 45 0.0 2.0 0.00 0.13 0.06 86 1010.1
20260505163037 59 99 1.0 2.0 0.00 0.13 0.06 85 1010.1
20260505162035 59 68 1.0 4.0 0.00 0.13 0.06 85 1010.1
20260505161034 60 56 1.0 2.0 0.00 0.13 0.06 85 1010.2
20260505153135 61 11 0.0 2.0 0.00 0.13 0.06 82 1010.5
20260505152053 61 90 0.0 2.0 0.00 0.13 0.06 82 1010.4
20260505151051 61 1 1.0 2.0 0.00 0.13 0.06 82 1010.5
20260505125023 63 308 1.0 4.0 0.00 0.13 0.06 82 1011.1
20260505124041 63 353 1.0 2.0 0.00 0.13 0.06 83 1011.2
20260505123019 63 55 1.0 6.0 0.00 0.13 0.06 81 1011.3
20260505122017 65 22 1.0 2.0 0.00 0.13 0.06 79 1011.3
20260505121015 65 258 3.0 8.0 0.00 0.13 0.06 77 1011.4
20260505120113 65 261 1.0 2.0 0.00 0.13 0.06 78 1011.4
20260505115111 64 79 1.0 4.0 0.00 0.13 0.06 77 1011.5
20260505114109 65 75 1.0 4.0 0.00 0.13 0.06 76 1011.5
20260505113107 64 68 2.0 6.0 0.00 0.13 0.06 77 1011.5
20260505112105 64 83 1.0 4.0 0.00 0.13 0.06 78 1011.5
20260505111103 64 150 0.0 2.0 0.00 0.13 0.06 79 1011.7
20260505110121 64 120 0.0 2.0 0.00 0.13 0.06 79 1011.8
20260505102053 62 222 1.0 2.0 0.00 0.13 0.06 83 1012.1
20260505101111 62 90 0.0 2.0 0.00 0.13 0.06 85 1012.1
20260505100049 62 90 0.0 2.0 0.00 0.13 0.06 85 1012.2
20260505095047 61 68 0.0 4.0 0.00 0.13 0.06 87 1012.1
20260505094045 60 255 1.0 2.0 0.00 0.13 0.06 89 1012.2
20260505093043 60 270 0.0 2.0 0.00 0.13 0.06 90 1012.1
20260505092101 59 0.0 2.0 0.00 0.13 0.06 93 1012.2
20260505091039 58 0.0 0.0 0.00 0.13 0.06 95 1012.2
20260505090036 58 248 1.0 2.0 0.00 0.13 0.06 96 1012.1
20260505085035 59 0.0 0.0 0.00 0.13 0.06 98 1012.1
20260505084053 58 0.0 0.0 0.00 0.13 0.06 98 1012.0
20260505083031 57 135 0.0 2.0 0.00 0.13 0.06 98 1012.0
20260505082028 57 0.0 0.0 0.00 0.13 0.06 99 1012.2
20260505081026 57 0.0 0.0 0.00 0.13 0.06 99 1012.1
20260505080024 57 0.0 0.0 0.00 0.13 0.06 99 1012.1
20260505075023 57 0.0 0.0 0.00 0.13 0.06 99 1012.2
20260505074020 57 0.0 0.0 0.00 0.13 0.06 99 1012.2
20260505073018 56 0.0 0.0 0.00 0.13 0.06 99 1012.4
20260505072016 56 0.0 0.0 0.00 0.13 0.06 99 1012.4
20260505071134 56 0.0 0.0 0.00 0.13 0.06 99 1012.4
20260505070133 56 0.0 0.0 0.00 0.13 0.06 99 1012.5
20260505065130 56 0.0 0.0 0.00 0.13 0.06 99 1012.5
20260505064108 56 0.0 0.0 0.00 0.13 0.06 99 1012.5
20260505063106 55 0.0 0.0 0.00 0.13 0.06 99 1012.4
20260505062124 55 0.0 0.0 0.01 0.13 0.06 99 1012.5
20260505061123 55 0.0 0.0 0.01 0.13 0.06 99 1012.5
20260505060100 55 0.0 0.0 0.01 0.13 0.06 99 1012.5
20260505055058 55 0.0 0.0 0.01 0.13 0.06 99 1012.6
20260505054117 55 0.0 0.0 0.01 0.13 0.06 99 1012.6
20260505053054 55 0.0 0.0 0.01 0.13 0.06 99 1012.6
20260505052052 55 0.0 0.0 0.00 0.12 0.05 99 1012.5
20260505051110 55 0.0 0.0 0.00 0.12 0.05 99 1012.5
20260505041038 55 0.0 0.0 0.04 0.12 0.05 99 1012.8
20260505040036 55 0.0 0.0 0.05 0.12 0.05 99 1012.8
20260505035034 55 0.0 0.0 0.05 0.12 0.05 99 1012.8
20260505034032 55 0.0 0.0 0.04 0.11 0.04 99 1012.9
20260505033030 55 0.0 0.0 0.02 0.09 0.02 99 1013.0
20260505032028 55 0.0 0.0 0.01 0.08 0.01 99 1012.9
20260505031026 55 0.0 0.0 0.01 0.08 0.01 99 1013.0
20260505030024 55 0.0 0.0 0.00 0.07 0.00 99 1013.1
20260505025022 55 0.0 0.0 0.00 0.07 0.00 99 1013.2
20260505024020 55 0.0 0.0 0.00 0.07 0.00 99 1013.3
20260505023018 55 0.0 0.0 0.00 0.07 0.00 99 1013.3
20260505022016 55 0.0 2.0 0.00 0.07 0.00 99 1013.5
20260505021114 55 113 0.0 2.0 0.00 0.07 0.00 99 1013.5
20260505020112 55 0.0 0.0 0.00 0.07 0.00 99 1013.3
20260505015110 55 0.0 0.0 0.00 0.07 0.00 99 1013.4
20260505014128 55 0.0 0.0 0.00 0.07 0.00 99 1013.5
20260505013106 55 0.0 0.0 0.00 0.07 0.00 99 1013.6
20260505012104 55 0.0 0.0 0.00 0.07 0.00 99 1013.7
20260505011102 55 0.0 0.0 0.00 0.07 0.00 99 1013.7
20260505010100 55 0.0 0.0 0.00 0.07 0.00 99 1013.6
20260505005058 55 0.0 0.0 0.00 0.07 0.00 98 1013.8
20260505004056 55 0.0 0.0 0.00 0.07 0.00 98 1013.9
20260505003054 55 0.0 0.0 0.00 0.07 0.00 98 1013.9
20260505002051 55 0.0 0.0 0.00 0.07 0.00 98 1013.9
20260505001130 55 0.0 0.0 0.00 0.07 0.00 98 1014.0
20260505000048 55 0.0 0.0 0.00 0.07 0.00 98 1014.1
20260504235045 55 248 0.0 2.0 0.00 0.07 0.00 98 1014.1
20260504234043 55 0.0 0.0 0.00 0.07 0.00 98 1014.3
20260504233042 55 0.0 0.0 0.00 0.07 0.00 98 1014.6
20260504232040 56 0.0 0.0 0.00 0.07 0.00 98 1014.7
20260504231038 56 0.0 0.0 0.00 0.07 0.00 98 1014.9
20260504230036 56 0.0 0.0 0.00 0.07 0.00 98 1015.0
20260504225033 56 0.0 0.0 0.00 0.07 0.00 98 1015.0
20260504224032 56 0.0 0.0 0.00 0.07 0.00 97 1015.1
20260504223029 56 0.0 0.0 0.00 0.07 0.00 97 1015.2
20260504222027 56 0.0 0.0 0.00 0.07 0.00 97 1015.1
20260504221025 56 0.0 0.0 0.00 0.07 0.00 97 1015.3
20260504220043 56 0.0 0.0 0.00 0.07 0.00 97 1015.2
20260504215021 56 0.0 0.0 0.01 0.07 0.07 97 1015.2
20260504214019 56 0.0 0.0 0.01 0.07 0.07 97 1015.5
20260504213018 56 0.0 0.0 0.01 0.07 0.07 97 1015.3
20260504212015 56 0.0 0.0 0.01 0.07 0.07 97 1015.4
20260504211113 57 118 0.0 2.0 0.01 0.07 0.07 97 1015.6
20260504210111 57 0.0 0.0 0.01 0.07 0.07 96 1015.6
20260504205109 57 0.0 0.0 0.00 0.06 0.06 96 1015.6
20260504204107 57 0.0 0.0 0.00 0.06 0.06 96 1015.9
20260504203125 56 0.0 2.0 0.00 0.06 0.06 96 1015.9
20260504202103 57 0.0 2.0 0.00 0.06 0.06 96 1015.8
20260504201101 57 0.0 2.0 0.00 0.06 0.06 95 1015.8
20260504200059 57 0.0 0.0 0.01 0.06 0.06 95 1015.8
20260504195057 57 169 1.0 2.0 0.01 0.06 0.06 95 1015.8
20260504194055 57 113 0.0 2.0 0.04 0.06 0.06 94 1015.8
20260504193113 57 0.0 0.0 0.05 0.06 0.06 94 1015.7
20260504192051 57 0.0 0.0 0.06 0.06 0.06 94 1015.7
20260504191049 57 135 0.0 2.0 0.06 0.06 0.06 93 1015.8
20260504190107 58 135 0.0 2.0 0.05 0.05 0.05 92 1015.7
20260504185045 58 0.0 2.0 0.05 0.05 0.05 90 1015.7
20260504184043 57 0.0 0.0 0.02 0.02 0.02 89 1015.7
20260504183141 58 0.0 0.0 0.01 0.01 0.01 88 1015.6
20260504182039 58 240 1.0 2.0 0.00 0.00 0.00 87 1015.4
20260504181037 58 253 2.0 4.0 0.00 0.00 0.00 86 1015.3
20260504180035 59 260 1.0 6.0 0.00 0.00 0.00 84 1015.2